COSMOS 1157

Satellite information

Favourite Embed

Satellite Type and Status

PAYLOADIN ORBIT

Key statistics

Satellite COSMOS 1157 at a glance.

Uptime

16585

Days in orbit

Revolutions

≈ 12.5

Per day

Orbit

LEO

Low Earth Orbit

Inclination

74.0

Latest

Satellite identification and parameters

Extended collection of information and parameters for COSMOS 1157.

Object identification

Identified? True

Debris? False

Object name: COSMOS 1157

International designator: 1980-012B

Object number (NORAD): 11692

Object ID (CCSDS): 11692

Country: COMMONWEALTH OF INDEPENDENT STATES (CIS)

Current information (Y/N): Y

RCS size: MEDIUM

Orbital parameters

Period: 114.781 minutes

Inclination: 74.0188 deg

SMA: 7823.608 km

Apoapsis: 1476.45 km

Periapsis: 1414.496 km

RAAN: 229.6228 deg

Eccentricy: 0.0039594

Argument of periapsis: 199.7056 deg

Mean anomaly: 334.4591 deg

Mean motion: 12.54562052 rev/day

Mean motion (dot): 0.00000014 rev/day2

B* drag term: 0.00018349 1/REarth

Two-line elements (TLE)

Creation date: July 9, 2025, 2:22 a.m.

Reference frame: TEME

Reference center: EARTH

Epoch: July 8, 2025, 8:19 p.m. UTC

TLE line 0: 0 COSMOS 1157

TLE line 1: 1 11692U 80012B 25189.84708682 .00000014 00000-0 18349-3 0 9991

TLE line 2: 2 11692 74.0188 229.6228 0039594 199.7056 334.4591 12.54562052 79385

Live tracking on map

Real-time ground track for satellite COSMOS 1157.

In-orbit conjunctions

There are no conjunctions computed for COSMOS 1157, at the moment. Check back to stay up to date, as we update our databases every day.

Go to all conjunctions

Associated space launch

Military communications satellites

COSMOS 1157 was lifted into orbit during the mission ‘Kosmos-3M | Strela-1M 185-192’, on board a Kosmos-3M space rocket.

The launch took place on Feb. 11, 1980, 11:32 p.m. from 132/2.

For more information about the launch, click the button.

Launch to space Kosmos-3M | Strela-1M 185-192
Kosmos-3M | Strela-1M 185-192

Agency: N/A

Status: Launch Successful

Launch date: Feb. 11, 1980, 11:32 p.m. UTC

Rocket: Kosmos-3M

Launch pad: 132/2

Location: Plesetsk Cosmodrome, Russian Federation

...

Latest news about this satellite

There are no fresh news available about this satellite. Check back as we update our databases every day.


Newsletter sign-up

Weekly statistics, charts and insights to help you stay on top of the space industry.